Time,TemperatureF,DewpointF,PressureIn,WindDirection,WindDirectionDegrees,WindSpeedMPH,WindSpeedGustMPH,Humidity,HourlyPrecipIn,Conditions,Clouds,dailyrainin,SoftwareType,DateUTC
2013-03-07 00:01:00,14.0,8.0,30.54,NNE,22,0.0,0.0,76,-99.99,,,-99.99,,2013-03-07 06:01:00,
2013-03-07 00:11:00,14.0,8.0,30.54,NNE,22,0.0,0.0,76,-99.99,,,-99.99,,2013-03-07 06:11:00,
2013-03-07 00:21:00,14.0,8.0,30.54,NNE,22,0.0,0.0,76,-99.99,,,-99.99,,2013-03-07 06:21:00,
2013-03-07 00:31:00,13.0,7.0,30.54,NNE,22,0.0,0.0,76,-99.99,,,-99.99,,2013-03-07 06:31:00,
2013-03-07 00:41:00,12.0,6.0,30.55,NNE,22,0.0,0.0,76,-99.99,,,-99.99,,2013-03-07 06:41:00,
2013-03-07 00:51:00,12.0,6.0,30.55,NNE,22,0.0,0.0,76,-99.99,,,-99.99,,2013-03-07 06:51:00,
2013-03-07 01:01:00,12.0,6.0,30.56,NNE,22,0.0,0.0,76,-99.99,,,-99.99,,2013-03-07 07:01:00,
2013-03-07 01:11:00,12.0,6.0,30.56,NNE,22,0.0,0.0,76,-99.99,,,-99.99,,2013-03-07 07:11:00,
2013-03-07 01:21:00,12.0,6.0,30.55,NNE,22,0.0,0.0,76,-99.99,,,-99.99,,2013-03-07 07:21:00,
2013-03-07 01:32:00,12.0,6.0,30.55,NNE,22,0.0,0.0,76,-99.99,,,-99.99,,2013-03-07 07:32:00,
2013-03-07 01:42:00,12.0,6.0,30.55,NNE,22,0.0,0.0,76,-99.99,,,-99.99,,2013-03-07 07:42:00,
2013-03-07 01:52:00,12.0,6.0,30.55,NNE,22,0.0,0.0,76,-99.99,,,-99.99,,2013-03-07 07:52:00,
2013-03-07 02:02:00,11.0,5.0,30.56,NNE,22,0.0,0.0,77,-99.99,,,-99.99,,2013-03-07 08:02:00,
2013-03-07 02:12:00,11.0,5.0,30.56,NNE,22,0.0,0.0,77,-99.99,,,-99.99,,2013-03-07 08:12:00,
2013-03-07 02:22:00,11.0,5.0,30.56,NNE,22,0.0,0.0,77,-99.99,,,-99.99,,2013-03-07 08:22:00,
2013-03-07 02:33:00,10.0,4.0,30.56,NNE,22,0.0,1.0,77,-99.99,,,-99.99,,2013-03-07 08:33:00,
2013-03-07 02:44:00,10.0,4.0,30.56,NNE,22,0.0,1.0,77,-99.99,,,-99.99,,2013-03-07 08:44:00,
2013-03-07 02:54:00,10.0,4.0,30.56,NNE,22,0.0,1.0,77,-99.99,,,-99.99,,2013-03-07 08:54:00,
2013-03-07 03:03:00,10.0,4.0,30.55,NNE,22,0.0,0.0,77,-99.99,,,-99.99,,2013-03-07 09:03:00,
2013-03-07 03:12:00,10.0,4.0,30.55,NNE,22,0.0,0.0,77,-99.99,,,-99.99,,2013-03-07 09:12:00,
2013-03-07 03:22:00,10.0,5.0,30.54,NNE,22,0.0,0.0,78,-99.99,,,-99.99,,2013-03-07 09:22:00,
2013-03-07 03:32:00,10.0,5.0,30.55,NNE,22,0.0,0.0,78,-99.99,,,-99.99,,2013-03-07 09:32:00,
2013-03-07 03:42:00,10.0,5.0,30.55,NNE,22,0.0,0.0,78,-99.99,,,-99.99,,2013-03-07 09:42:00,
2013-03-07 03:52:00,10.0,5.0,30.54,NNE,22,0.0,0.0,78,-99.99,,,-99.99,,2013-03-07 09:52:00,
2013-03-07 04:02:00,10.0,5.0,30.55,NNE,22,0.0,0.0,78,-99.99,,,-99.99,,2013-03-07 10:02:00,
2013-03-07 04:12:00,10.0,5.0,30.55,NNE,22,0.0,0.0,78,-99.99,,,-99.99,,2013-03-07 10:12:00,
2013-03-07 04:22:00,9.0,3.0,30.55,NNE,22,0.0,0.0,77,-99.99,,,-99.99,,2013-03-07 10:22:00,
2013-03-07 04:33:00,9.0,3.0,30.56,NNE,22,0.0,0.0,77,-99.99,,,-99.99,,2013-03-07 10:33:00,
2013-03-07 04:42:00,9.0,3.0,30.56,NNE,22,0.0,0.0,77,-99.99,,,-99.99,,2013-03-07 10:42:00,
2013-03-07 04:52:00,8.0,2.0,30.56,NNE,22,0.0,0.0,77,-99.99,,,-99.99,,2013-03-07 10:52:00,
2013-03-07 05:02:00,8.0,2.0,30.56,NNE,22,0.0,0.0,77,-99.99,,,-99.99,,2013-03-07 11:02:00,
2013-03-07 05:12:00,8.0,2.0,30.56,NNE,22,0.0,0.0,77,-99.99,,,-99.99,,2013-03-07 11:12:00,
2013-03-07 05:22:00,8.0,2.0,30.55,NNE,22,0.0,0.0,77,-99.99,,,-99.99,,2013-03-07 11:22:00,
2013-03-07 05:33:00,7.0,1.0,30.56,NNE,22,0.0,0.0,76,-99.99,,,-99.99,,2013-03-07 11:33:00,
2013-03-07 05:44:00,7.0,1.0,30.56,NNE,22,0.0,0.0,76,-99.99,,,-99.99,,2013-03-07 11:44:00,
2013-03-07 05:54:00,7.0,1.0,30.56,NNE,22,0.0,0.0,76,-99.99,,,-99.99,,2013-03-07 11:54:00,
2013-03-07 06:02:00,7.0,1.0,30.57,NNE,22,0.0,0.0,76,-99.99,,,-99.99,,2013-03-07 12:02:00,
2013-03-07 06:12:00,7.0,1.0,30.57,NNE,22,0.0,0.0,76,-99.99,,,-99.99,,2013-03-07 12:12:00,
2013-03-07 06:22:00,7.0,1.0,30.58,NNE,22,0.0,0.0,77,-99.99,,,-99.99,,2013-03-07 12:22:00,
2013-03-07 06:33:00,6.0,0.0,30.58,NNE,22,0.0,0.0,76,-99.99,,,-99.99,,2013-03-07 12:33:00,
2013-03-07 06:42:00,6.0,0.0,30.58,NNE,22,0.0,0.0,76,-99.99,,,-99.99,,2013-03-07 12:42:00,
2013-03-07 06:52:00,6.0,0.0,30.58,NNE,22,0.0,0.0,76,-99.99,,,-99.99,,2013-03-07 12:52:00,
2013-03-07 07:02:00,6.0,0.0,30.59,NNE,22,0.0,0.0,76,-99.99,,,-99.99,,2013-03-07 13:02:00,
2013-03-07 07:12:00,6.0,0.0,30.59,NNE,22,0.0,0.0,76,-99.99,,,-99.99,,2013-03-07 13:12:00,
2013-03-07 07:22:00,6.0,0.0,30.59,NNE,22,0.0,0.0,76,-99.99,,,-99.99,,2013-03-07 13:22:00,
2013-03-07 07:32:00,7.0,1.0,30.59,NNE,22,0.0,0.0,77,-99.99,,,-99.99,,2013-03-07 13:32:00,
2013-03-07 07:42:00,7.0,1.0,30.59,NNE,22,0.0,0.0,77,-99.99,,,-99.99,,2013-03-07 13:42:00,
2013-03-07 07:52:00,8.0,3.0,30.60,NNE,22,0.0,0.0,78,-99.99,,,-99.99,,2013-03-07 13:52:00,
2013-03-07 08:01:00,9.0,4.0,30.60,NNE,22,0.0,0.0,79,-99.99,,,-99.99,,2013-03-07 14:01:00,
2013-03-07 08:12:00,9.0,4.0,30.60,NNE,22,0.0,0.0,79,-99.99,,,-99.99,,2013-03-07 14:12:00,
2013-03-07 08:22:00,11.0,6.0,30.60,NNE,22,0.0,0.0,79,-99.99,,,-99.99,,2013-03-07 14:22:00,
2013-03-07 08:32:00,12.0,7.0,30.61,NW,315,0.0,0.0,80,-99.99,,,-99.99,,2013-03-07 14:32:00,
2013-03-07 08:42:00,12.0,7.0,30.61,NW,315,0.0,0.0,80,-99.99,,,-99.99,,2013-03-07 14:42:00,
2013-03-07 08:52:00,12.0,7.0,30.60,NW,315,0.0,0.0,79,-99.99,,,-99.99,,2013-03-07 14:52:00,
2013-03-07 09:02:00,13.0,8.0,30.59,NW,315,0.0,0.0,79,-99.99,,,-99.99,,2013-03-07 15:02:00,
2013-03-07 09:12:00,13.0,8.0,30.59,NW,315,0.0,0.0,79,-99.99,,,-99.99,,2013-03-07 15:12:00,
2013-03-07 09:22:00,15.0,10.0,30.59,WNW,292,0.0,0.0,79,-99.99,,,-99.99,,2013-03-07 15:22:00,
2013-03-07 09:32:00,17.0,12.0,30.59,NW,315,0.0,0.0,80,-99.99,,,-99.99,,2013-03-07 15:32:00,
2013-03-07 09:42:00,17.0,12.0,30.59,NW,315,0.0,0.0,80,-99.99,,,-99.99,,2013-03-07 15:42:00,
2013-03-07 09:52:00,17.0,11.0,30.60,NW,315,0.0,0.0,76,-99.99,,,-99.99,,2013-03-07 15:52:00,
2013-03-07 10:02:00,18.0,12.0,30.60,NW,315,0.0,0.0,76,-99.99,,,-99.99,,2013-03-07 16:02:00,
2013-03-07 10:12:00,18.0,12.0,30.60,NW,315,0.0,0.0,76,-99.99,,,-99.99,,2013-03-07 16:12:00,
2013-03-07 10:23:00,20.0,13.0,30.59,NNW,337,0.0,1.0,74,-99.99,,,-99.99,,2013-03-07 16:23:00,
2013-03-07 10:32:00,20.0,13.0,30.59,West,270,0.0,0.0,73,-99.99,,,-99.99,,2013-03-07 16:32:00,
2013-03-07 10:42:00,20.0,13.0,30.59,West,270,0.0,0.0,73,-99.99,,,-99.99,,2013-03-07 16:42:00,
2013-03-07 10:52:00,22.0,14.0,30.60,NNW,337,1.0,3.0,71,-99.99,,,-99.99,,2013-03-07 16:52:00,
2013-03-07 11:02:00,24.0,15.0,30.59,NNW,337,0.0,0.0,67,-99.99,,,-99.99,,2013-03-07 17:02:00,
2013-03-07 11:12:00,24.0,15.0,30.59,NNW,337,0.0,0.0,67,-99.99,,,-99.99,,2013-03-07 17:12:00,
2013-03-07 11:22:00,25.0,15.0,30.58,NNW,337,2.0,3.0,65,-99.99,,,-99.99,,2013-03-07 17:22:00,
2013-03-07 11:32:00,25.0,15.0,30.58,NNW,337,2.0,3.0,65,-99.99,,,-99.99,,2013-03-07 17:32:00,
2013-03-07 11:43:00,25.0,15.0,30.58,NNW,337,2.0,3.0,65,-99.99,,,-99.99,,2013-03-07 17:43:00,
2013-03-07 11:52:00,28.0,17.0,30.59,NNW,337,4.0,5.0,62,-99.99,,,-99.99,,2013-03-07 17:52:00,
2013-03-07 12:03:00,29.0,17.0,30.58,NNW,337,2.0,7.0,60,-99.99,,,-99.99,,2013-03-07 18:03:00,
2013-03-07 12:12:00,29.0,17.0,30.58,NNW,337,2.0,7.0,60,-99.99,,,-99.99,,2013-03-07 18:12:00,
2013-03-07 12:22:00,32.0,19.0,30.58,NNW,337,0.0,0.0,58,-99.99,,,-99.99,,2013-03-07 18:22:00,
2013-03-07 12:32:00,33.0,19.0,30.58,WNW,292,0.0,0.0,56,-99.99,,,-99.99,,2013-03-07 18:32:00,
2013-03-07 12:42:00,33.0,19.0,30.58,WNW,292,0.0,0.0,56,-99.99,,,-99.99,,2013-03-07 18:42:00,
2013-03-07 12:52:00,34.0,19.0,30.59,WNW,292,0.0,3.0,54,-99.99,,,-99.99,,2013-03-07 18:52:00,
2013-03-07 13:02:00,35.0,20.0,30.58,SSW,202,0.0,3.0,53,-99.99,,,-99.99,,2013-03-07 19:02:00,
2013-03-07 13:12:00,37.0,21.0,30.57,SSW,199,4.0,7.0,51,-99.99,,,-99.99,,2013-03-07 19:12:00,
2013-03-07 13:34:00,41.0,23.0,30.56,South,191,5.0,5.0,48,-99.99,,,-99.99,,2013-03-07 19:34:00,
2013-03-07 13:43:00,41.0,23.0,30.56,South,191,5.0,5.0,48,-99.99,,,-99.99,,2013-03-07 19:43:00,
2013-03-07 13:52:00,44.0,24.0,30.56,South,180,2.0,6.0,45,-99.99,,,-99.99,,2013-03-07 19:52:00,
2013-03-07 14:02:00,44.0,23.0,30.55,SW,235,5.0,8.0,43,-99.99,,,-99.99,,2013-03-07 20:02:00,
2013-03-07 14:13:00,44.0,23.0,30.55,SW,235,5.0,8.0,43,-99.99,,,-99.99,,2013-03-07 20:13:00,
2013-03-07 14:22:00,45.0,23.0,30.55,SW,225,3.0,7.0,42,-99.99,,,-99.99,,2013-03-07 20:22:00,
2013-03-07 14:32:00,42.0,22.0,30.54,WSW,247,0.0,0.0,44,-99.99,,,-99.99,,2013-03-07 20:32:00,
2013-03-07 14:42:00,42.0,22.0,30.54,WSW,247,0.0,0.0,44,-99.99,,,-99.99,,2013-03-07 20:42:00,
2013-03-07 14:53:00,39.0,19.0,30.54,West,270,0.0,0.0,45,-99.99,,,-99.99,,2013-03-07 20:53:00,
2013-03-07 15:02:00,40.0,20.0,30.54,West,270,2.0,3.0,45,-99.99,,,-99.99,,2013-03-07 21:02:00,
2013-03-07 15:12:00,40.0,20.0,30.54,West,270,2.0,3.0,45,-99.99,,,-99.99,,2013-03-07 21:12:00,
2013-03-07 15:22:00,39.0,20.0,30.54,SW,225,0.0,6.0,46,-99.99,,,-99.99,,2013-03-07 21:22:00,
2013-03-07 15:32:00,41.0,21.0,30.53,SSW,193,5.0,7.0,45,-99.99,,,-99.99,,2013-03-07 21:32:00,
2013-03-07 15:42:00,41.0,21.0,30.53,SSW,193,5.0,7.0,45,-99.99,,,-99.99,,2013-03-07 21:42:00,
2013-03-07 15:52:00,41.0,21.0,30.53,South,175,4.0,8.0,45,-99.99,,,-99.99,,2013-03-07 21:52:00,
2013-03-07 16:01:00,41.0,21.0,30.53,South,175,4.0,8.0,45,-99.99,,,-99.99,,2013-03-07 22:01:00,
2013-03-07 16:12:00,41.0,21.0,30.53,South,175,4.0,8.0,45,-99.99,,,-99.99,,2013-03-07 22:12:00,
2013-03-07 16:22:00,41.0,21.0,30.53,South,175,4.0,8.0,45,-99.99,,,-99.99,,2013-03-07 22:22:00,
2013-03-07 16:32:00,40.0,21.0,30.52,West,270,0.0,0.0,46,-99.99,,,-99.99,,2013-03-07 22:32:00,
2013-03-07 16:43:00,40.0,21.0,30.52,West,270,0.0,0.0,46,-99.99,,,-99.99,,2013-03-07 22:43:00,
2013-03-07 16:54:00,39.0,20.0,30.53,NNW,337,0.0,5.0,46,-99.99,,,-99.99,,2013-03-07 22:54:00,
2013-03-07 17:02:00,39.0,20.0,30.53,WSW,247,0.0,0.0,47,-99.99,,,-99.99,,2013-03-07 23:02:00,
2013-03-07 17:12:00,39.0,20.0,30.53,WSW,247,0.0,0.0,47,-99.99,,,-99.99,,2013-03-07 23:12:00,
2013-03-07 17:22:00,39.0,20.0,30.53,WSW,247,0.0,0.0,47,-99.99,,,-99.99,,2013-03-07 23:22:00,
2013-03-07 17:33:00,42.0,21.0,30.53,SE,139,4.0,7.0,43,-99.99,,,-99.99,,2013-03-07 23:33:00,
2013-03-07 17:42:00,42.0,21.0,30.53,SE,139,4.0,7.0,43,-99.99,,,-99.99,,2013-03-07 23:42:00,
2013-03-07 17:52:00,42.0,21.0,30.53,SSE,157,3.0,4.0,43,-99.99,,,-99.99,,2013-03-07 23:52:00,
2013-03-07 18:04:00,42.0,21.0,30.53,SSE,157,3.0,4.0,43,-99.99,,,-99.99,,2013-03-08 00:04:00,
2013-03-07 18:12:00,42.0,21.0,30.53,SSE,157,3.0,4.0,43,-99.99,,,-99.99,,2013-03-08 00:12:00,
2013-03-07 18:22:00,34.0,17.0,30.53,SE,135,0.0,0.0,49,-99.99,,,-99.99,,2013-03-08 00:22:00,
2013-03-07 18:33:00,32.0,16.0,30.54,SE,135,0.0,0.0,52,-99.99,,,-99.99,,2013-03-08 00:33:00,
2013-03-07 18:44:00,32.0,16.0,30.54,SE,135,0.0,0.0,52,-99.99,,,-99.99,,2013-03-08 00:44:00,
2013-03-07 18:53:00,30.0,16.0,30.54,SE,135,0.0,0.0,55,-99.99,,,-99.99,,2013-03-08 00:53:00,
2013-03-07 19:02:00,29.0,16.0,30.54,SE,135,0.0,0.0,57,-99.99,,,-99.99,,2013-03-08 01:02:00,
2013-03-07 19:11:00,29.0,16.0,30.54,SE,135,0.0,0.0,57,-99.99,,,-99.99,,2013-03-08 01:11:00,
2013-03-07 19:21:00,28.0,16.0,30.54,SE,135,0.0,0.0,60,-99.99,,,-99.99,,2013-03-08 01:21:00,
2013-03-07 19:32:00,27.0,16.0,30.55,SE,135,0.0,0.0,62,-99.99,,,-99.99,,2013-03-08 01:32:00,
2013-03-07 19:42:00,27.0,16.0,30.55,SE,135,0.0,0.0,62,-99.99,,,-99.99,,2013-03-08 01:42:00,
2013-03-07 19:51:00,27.0,16.0,30.55,SE,135,0.0,0.0,63,-99.99,,,-99.99,,2013-03-08 01:51:00,
2013-03-07 20:01:00,27.0,16.0,30.54,ESE,112,0.0,1.0,63,-99.99,,,-99.99,,2013-03-08 02:01:00,
2013-03-07 20:11:00,27.0,16.0,30.53,ESE,112,1.0,2.0,63,-99.99,,,-99.99,,2013-03-08 02:11:00,
2013-03-07 20:21:00,27.0,16.0,30.53,ESE,112,1.0,2.0,63,-99.99,,,-99.99,,2013-03-08 02:21:00,
2013-03-07 20:31:00,26.0,16.0,30.52,SE,138,3.0,6.0,64,-99.99,,,-99.99,,2013-03-08 02:31:00,
2013-03-07 20:42:00,26.0,16.0,30.52,SE,138,3.0,6.0,64,-99.99,,,-99.99,,2013-03-08 02:42:00,
2013-03-07 20:52:00,26.0,16.0,30.53,SE,135,2.0,6.0,64,-99.99,,,-99.99,,2013-03-08 02:52:00,
2013-03-07 21:02:00,25.0,15.0,30.53,ESE,112,0.0,6.0,65,-99.99,,,-99.99,,2013-03-08 03:02:00,
2013-03-07 21:11:00,25.0,15.0,30.53,ESE,112,0.0,6.0,65,-99.99,,,-99.99,,2013-03-08 03:11:00,
2013-03-07 21:22:00,25.0,15.0,30.53,SE,135,0.0,5.0,66,-99.99,,,-99.99,,2013-03-08 03:22:00,
2013-03-07 21:42:00,25.0,15.0,30.53,SE,135,0.0,5.0,66,-99.99,,,-99.99,,2013-03-08 03:42:00,
2013-03-07 21:52:00,24.0,15.0,30.53,SE,135,4.0,6.0,67,-99.99,,,-99.99,,2013-03-08 03:52:00,
2013-03-07 22:01:00,24.0,15.0,30.53,SE,135,3.0,6.0,67,-99.99,,,-99.99,,2013-03-08 04:01:00,
2013-03-07 22:11:00,23.0,14.0,30.54,SE,135,3.0,4.0,68,-99.99,,,-99.99,,2013-03-08 04:11:00,
2013-03-07 22:21:00,23.0,14.0,30.54,SE,135,3.0,4.0,68,-99.99,,,-99.99,,2013-03-08 04:21:00,
2013-03-07 22:32:00,23.0,14.0,30.54,SE,135,3.0,3.0,69,-99.99,,,-99.99,,2013-03-08 04:32:00,
2013-03-07 22:42:00,23.0,14.0,30.54,SE,135,3.0,3.0,69,-99.99,,,-99.99,,2013-03-08 04:42:00,
2013-03-07 22:51:00,23.0,15.0,30.54,SE,135,3.0,4.0,70,-99.99,,,-99.99,,2013-03-08 04:51:00,
2013-03-07 23:02:00,23.0,15.0,30.55,SE,135,2.0,6.0,71,-99.99,,,-99.99,,2013-03-08 05:02:00,
2013-03-07 23:12:00,23.0,15.0,30.55,SE,135,2.0,6.0,71,-99.99,,,-99.99,,2013-03-08 05:12:00,
2013-03-07 23:22:00,23.0,15.0,30.55,SE,145,3.0,6.0,71,-99.99,,,-99.99,,2013-03-08 05:22:00,
2013-03-07 23:32:00,23.0,15.0,30.56,SE,135,3.0,6.0,71,-99.99,,,-99.99,,2013-03-08 05:32:00,
2013-03-07 23:42:00,23.0,15.0,30.56,SE,135,3.0,6.0,71,-99.99,,,-99.99,,2013-03-08 05:42:00,
2013-03-07 23:52:00,23.0,15.0,30.55,SE,135,2.0,7.0,71,-99.99,,,-99.99,,2013-03-08 05:52:00,